Simultaneous Nadir Overpasses (SNOs) Predictions

Prediction of SNOs between AQUA and GOES-15 Satellite Orbit:

Table of predicted SNOs for the next 14.0 days since TLE Epoch: 11/17/2016
Index Date Time (AQUA) AQUA Lat,Lon GOES-15 Lat,Lon Distance(km) Time Diff (sec)
1 11/18/2016 10:37:35 0.11,-135.60 0.04,-135.30 34.16 80
2 11/20/2016 10:25:25 -0.55,-132.65 0.04,-135.33 305.40 80
3 11/20/2016 22:46:50 -0.54,-137.85 -0.02,-135.30 289.42 80
4 11/22/2016 22:34:39 0.07,-134.89 -0.02,-135.33 50.00 80
5 11/24/2016 22:22:28 0.68,-131.93 -0.03,-135.36 389.23 80
6 11/25/2016 10:43:44 0.39,-137.09 0.01,-135.41 191.96 80
7 11/27/2016 10:31:34 -0.29,-134.15 0.01,-135.43 146.62 80
8 11/27/2016 22:52:57 -0.84,-139.34 0.01,-135.39 448.80 80
9 11/29/2016 10:19:23 -0.91,-131.19 0.02,-135.45 484.51 80
10 11/29/2016 22:40:46 -0.21,-136.38 -0.00,-135.40 110.96 80




NCC Satellite Simultaneous Nadir Overpasses (SNOs) Prediction Service
